Location: Lodi
(45.3170°N, 9.5000°E)
Time: 09:04:08
(UTC+02:00)

ISS - Visible Passes

Search period start: 08 May 2021 00:00
Search period end: 18 May 2021 00:00
Orbit: 418 x 421 km, 51.6° (Epoch: 08 May)

Date Brightness Start Highest point End Pass type
(mag) Time Alt. Az. Time Alt. Az. Time Alt. Az.
08 May -2.3 02:49:24 38° N 02:49:24 38° N 02:52:03 10° NE visible
08 May -1.7 04:23:14 10° WNW 04:26:10 27° N 04:29:07 10° ENE visible
09 May -1.3 02:03:26 20° NE 02:03:26 20° NE 02:04:39 10° ENE visible
09 May -1.7 03:36:22 15° WNW 03:38:35 27° N 03:41:32 10° ENE visible
09 May -2.2 05:12:48 10° NW 05:15:59 37° NNE 05:19:10 10° E visible
10 May -2.0 02:50:22 27° NNW 02:51:00 29° N 02:54:01 10° NE visible
10 May -1.8 04:25:22 10° NW 04:28:26 31° N 04:31:30 10° ENE visible
11 May -1.7 02:04:21 28° NNE 02:04:21 28° NNE 02:06:34 10° NE visible
11 May -1.7 03:37:52 10° NW 03:40:51 28° N 03:43:49 10° ENE visible
11 May -3.3 05:14:42 10° WNW 05:18:05 66° NNE 05:21:27 10° ESE visible
12 May -1.1 01:18:16 16° NE 01:18:16 16° NE 01:19:08 10° NE visible
12 May -1.6 02:51:12 15° NW 02:53:16 27° N 02:56:12 10° ENE visible
12 May -2.7 04:27:18 10° NW 04:30:35 47° NNE 04:33:52 10° E visible
13 May -1.7 02:05:02 25° NNW 02:05:40 27° N 02:08:37 10° ENE visible
13 May -2.2 03:39:53 10° NW 03:43:04 37° NNE 03:46:14 10° E visible
13 May -3.6 05:16:41 10° WNW 05:19:59 53° SW 05:23:18 10° SE visible
14 May -1.6 01:18:38 27° N 01:18:38 27° N 01:21:06 10° NE visible
14 May -1.8 02:52:26 10° NW 02:55:30 31° NNE 02:58:34 10° ENE visible
14 May -3.8 04:29:12 10° WNW 04:32:36 84° SSW 04:35:59 10° ESE visible
14 May -3.9 22:50:10 10° SW 22:53:30 66° SE 22:55:41 20° ENE visible
15 May -2.0 00:27:23 10° W 00:30:30 34° NNW 00:33:38 10° NE visible
15 May -1.6 02:04:57 10° NW 02:07:55 28° N 02:10:54 10° ENE visible
15 May -3.4 03:41:47 10° WNW 03:45:09 66° NNE 03:48:31 10° ESE visible
15 May -3.4 22:02:57 10° SW 22:06:08 41° SE 22:09:19 10° ENE visible
15 May -2.5 23:39:44 10° W 23:42:57 42° NNW 23:46:12 10° NE visible
16 May -1.5 01:17:23 10° WNW 01:20:20 27° N 01:23:15 10° ENE visible
16 May -2.8 02:54:22 10° NW 02:57:39 47° NNE 03:00:56 10° E visible
16 May -3.1 04:31:19 10° WNW 04:34:23 33° SW 04:37:27 10° SSE visible
16 May -3.1 22:52:08 10° WSW 22:55:27 56° NNW 22:58:46 10° NE visible
17 May -1.6 00:29:46 10° WNW 00:32:43 27° N 00:35:40 10° ENE visible
17 May -2.2 02:06:56 10° NW 02:10:07 37° NNE 02:13:18 10° E visible
17 May -3.7 03:43:44 10° WNW 03:47:02 53° SW 03:50:20 10° SE visible
17 May -3.7 22:04:37 10° WSW 22:07:58 81° NNW 22:11:21 10° ENE visible
17 May -1.7 23:42:07 10° WNW 23:45:07 29° N 23:48:08 10° NE visible
